User: anonymous   Login
Location: Ripley
(48.3812°N, 115.4473°W)
Time: 18:00:34
(UTC+00:00)
Language:

deb Agena D - Orbit

View from above orbital plane
View from above orbital plane
View from above satellite
View from above satellite

Ground track
Ground track

The orbit data is extracted from the following two-line orbital elements,

1 04754U 70025DC  22333.77826450  .00002116  00000-0  11403-2 0  9997
2 04754  99.6183 158.4468 0020869 330.5205  29.4787 14.13879710649475
Epoch (UTC): 29 November 2022 18:40:42
Eccentricity: 0.0020869
inclination: 99.6183°
perigee height: 831 km
apogee height: 861 km
right ascension of ascending node: 158.4468°
argument of perigee: 330.5205°
revolutions per day: 14.13879710
mean anomaly at epoch: 29.4787°
orbit number at epoch: 64947

The dashed part of the orbit path shows where the satellite is in the earth's shadow,  

DLR